Wind_Speed
3 3 3 2 3 3 4 4 4 4 4 4 4 4 5 5 5 5 5 4 4 5 6 5 5 5 4 5 5 5 5 5 5 6 6 6 7 7 7 7 7 6 7
3 4 4 4 3 4 5 5 6 5 5 6 6 6 6 6 6 6 6 6 6 6 6 6 6 5 5 5 5 5 6 6 6 6 7 7 7 7 7 7 7 7 7
4 4 4 5 4 5 5 5 6 7 7 7 7 7 7 7 7 7 7 7 7 7 6 7 6 6 6 6 5 5 5 6 6 6 7 7 7 8 8 8 8 8 8
5 5 5 6 6 6 6 7 7 7 7 7 7 7 7 7 7 7 7 8 8 8 7 7 6 7 7 6 6 6 6 6 6 7 7 7 7 8 8 8 9 9 8
5 6 6 6 7 7 7 7 7 7 7 7 7 8 8 7 7 7 8 8 8 8 8 8 7 7 7 7 7 7 7 7 7 7 7 7 8 8 8 8 8 9 9
6 6 6 7 7 7 7 7 7 8 8 7 8 7 7 7 7 7 8 9 9 8 8 8 8 8 8 8 8 8 8 8 8 8 8 8 8 8 8 8 8 9 9
6 7 7 7 7 7 7 7 7 7 7 7 7 7 7 7 7 7 8 8 8 9 9 9 9 9 8 8 9 9 9 8 8 8 8 8 9 9 9 9 9 9 10
7 8 7 7 7 7 7 8 8 7 7 7 8 8 8 8 8 8 8 8 9 9 10 10 9 9 9 8 8 8 9 9 9 9 9 9 9 9 10 9 10 10 10
7 8 7 7 7 7 8 8 8 8 7 7 8 8 8 8 8 8 8 9 9 9 9 10 10 9 9 9 9 9 9 9 9 9 10 9 10 10 10 10 11 11 11
7 7 8 8 8 8 8 8 9 8 8 8 8 8 8 8 8 8 8 8 8 9 9 10 10 10 10 10 9 9 9 9 10 10 10 10 10 10 11 11 11 12 11
8 8 8 8 9 9 8 9 9 8 8 8 8 8 8 8 7 7 7 8 8 8 9 9 9 9 9 9 9 9 9 9 9 10 10 10 10 11 11 11 11 11 12
8 8 8 8 9 9 9 9 8 8 8 8 8 8 8 7 7 7 7 8 8 8 9 9 10 10 9 9 10 10 10 9 9 10 10 10 10 10 10 11 11 11 11
8 8 8 8 8 8 8 8 8 8 8 8 8 8 8 7 8 8 8 7 8 8 8 8 9 9 10 10 9 10 10 10 9 10 10 10 10 10 10 11 11 12 11
8 8 8 8 8 8 8 8 8 8 7 7 7 7 7 7 7 7 7 7 7 8 7 8 9 9 9 10 9 9 10 10 10 10 10 10 10 10 10 11 11 11 12
8 8 8 8 8 8 9 9 8 8 7 7 7 7 7 7 7 7 8 8 7 7 7 8 8 8 9 10 10 10 11 11 10 10 10 10 10 10 9 9 10 10 11
9 9 9 9 8 8 9 9 9 8 8 8 7 7 7 7 7 7 7 8 8 8 8 8 8 8 8 9 9 10 10 11 11 11 10 10 9 10 10 10 10 10 10
9 9 9 9 9 9 9 9 9 9 8 7 7 7 6 6 6 6 7 7 8 8 8 8 8 8 8 9 9 9 9 10 10 10 9 9 9 9 9 10 10 9 9
10 9 10 9 9 9 9 8 8 8 8 7 7 6 6 6 6 6 7 7 7 7 8 8 8 8 8 8 8 8 9 9 10 9 9 9 9 9 9 8 8 7 6
11 10 9 9 8 8 8 8 7 8 8 8 7 7 7 7 6 7 7 7 7 7 7 8 8 7 8 8 8 7 7 7 8 9 9 9 9 9 9 8 7 6 5
11 10 10 9 9 9 9 8 8 8 8 8 8 8 8 8 7 8 8 8 8 8 8 7 7 8 7 7 7 7 7 6 7 7 8 8 9 9 8 8 8 7 7
12 11 11 10 10 9 9 9 9 9 8 8 9 9 9 8 8 8 8 8 8 8 8 8 8 8 7 6 6 7 7 7 7 7 7 8 8 8 8 7 8 8 8
12 11 11 10 10 10 10 9 10 10 10 9 9 9 9 10 9 9 8 8 7 7 7 7 7 7 7 7 7 7 7 7 7 7 7 8 8 8 8 9 9 9 8
13 12 11 11 11 11 10 10 10 10 11 10 10 9 9 10 10 10 9 9 8 8 8 8 8 7 7 7 7 7 7 7 7 7 7 7 8 8 8 9 9 8 8
13 13 12 11 11 11 11 11 10 11 11 11 10 11 11 11 11 10 10 10 10 10 10 9 9 9 9 9 8 8 8 8 8 8 8 8 8 8 9 8 8 8 8
14 13 13 13 13 13 13 12 12 11 11 11 11 11 11 11 11 11 11 11 11 11 11 10 10 11 10 10 10 9 9 9 9 9 8 8 8 8 9 9 9 9 9
14 14 14 14 15 15 14 14 13 13 13 12 12 12 12 12 12 12 12 13 12 12 11 12 12 11 11 10 11 11 10 9 9 9 9 9 9 8 9 9 9 9 10
Wind_Direction
282 282 289 278 263 266 267 267 268 271 266 260 262 261 258 250 250 255 251 253 252 256 257 255 254 252 258 258 262 262 256 252 255 262 264 267 262 262 262 255 251 247 247
288 289 287 286 276 274 271 267 266 265 266 266 265 264 257 254 257 257 253 255 255 259 260 256 256 253 255 256 259 262 257 252 255 260 266 265 259 258 258 253 245 245 248
291 289 286 286 281 275 272 268 266 265 266 266 265 262 260 255 255 254 252 253 255 256 253 253 250 255 257 254 254 258 260 259 258 261 265 263 258 256 253 252 245 244 245
291 289 288 284 282 277 273 271 270 269 269 266 263 261 262 259 258 256 255 257 258 257 251 250 246 253 257 257 256 256 257 261 261 265 264 261 258 253 250 251 250 248 249
296 294 291 287 282 279 275 273 270 270 270 270 267 263 263 263 260 259 258 259 259 257 251 252 255 254 257 260 259 260 260 262 261 262 265 264 259 253 252 255 256 252 255
302 298 295 288 283 281 277 274 272 269 271 270 267 261 258 260 259 260 260 259 257 257 255 252 255 256 262 261 259 259 262 260 259 261 262 262 259 255 253 255 256 253 255
306 301 299 296 288 284 280 277 273 269 269 269 268 266 260 263 263 261 261 260 257 257 258 256 255 257 260 260 257 257 261 260 258 260 259 261 261 258 257 258 259 257 257
303 299 292 291 289 286 283 281 277 269 269 271 271 269 268 265 261 261 262 261 260 260 260 258 253 253 255 255 256 258 260 262 261 259 262 261 257 257 258 260 263 262 260
305 303 295 292 287 285 282 279 278 273 271 273 272 271 270 268 264 263 264 262 260 260 257 254 253 253 252 255 258 259 262 262 261 263 264 266 261 259 259 260 262 264 261
308 304 299 293 283 281 280 280 281 276 274 272 273 270 269 268 267 264 262 262 259 259 257 255 254 254 255 257 259 258 261 264 264 267 265 265 263 261 261 260 261 261 263
310 307 301 293 284 282 281 280 281 279 278 276 273 270 270 267 264 261 262 261 261 261 258 254 251 251 255 256 258 257 260 267 267 271 267 267 267 267 265 263 261 260 262
310 309 306 293 286 283 280 280 280 279 280 279 273 271 270 266 260 259 265 265 261 260 257 254 253 253 254 257 259 260 263 271 275 276 272 268 268 268 266 263 263 262 263
308 307 308 299 291 288 281 279 282 282 283 280 276 271 267 266 259 257 265 265 261 259 258 257 256 255 255 257 263 267 267 269 273 275 274 270 268 268 266 266 267 265 264
308 305 303 299 295 289 285 282 284 285 283 278 276 271 266 264 260 259 263 263 261 261 259 261 262 262 261 258 262 264 265 269 268 269 271 269 270 271 271 269 271 269 266
309 306 303 302 299 295 288 283 287 285 283 278 275 273 267 265 264 262 262 261 260 257 259 258 265 266 264 260 261 263 266 268 268 266 267 266 269 272 275 274 271 275 273
310 307 303 299 296 296 292 285 288 288 280 278 273 273 269 266 264 262 264 263 261 258 259 261 265 269 269 264 264 264 264 268 266 263 264 265 268 273 272 269 269 274 276
309 308 305 302 297 296 297 290 285 288 281 277 274 270 267 269 263 260 263 265 262 260 263 266 267 271 271 267 265 265 267 268 267 260 262 264 265 269 271 264 268 275 278
304 305 304 304 298 297 298 292 288 285 280 274 272 267 265 267 261 259 260 264 261 262 263 267 267 271 276 273 268 267 269 269 263 258 259 259 261 266 271 270 271 277 272
299 299 301 301 299 298 297 289 287 283 278 271 268 270 266 263 262 263 263 265 265 265 266 265 269 277 280 277 270 273 272 268 260 259 261 260 261 262 265 267 270 275 274
294 295 296 298 297 296 293 284 283 284 278 272 266 266 267 263 262 265 267 265 261 262 264 267 273 277 279 270 274 277 275 272 266 264 263 265 263 262 269 276 275 276 276
291 292 292 293 294 290 288 282 282 282 279 274 264 259 260 260 261 263 262 257 252 257 263 267 271 270 272 267 274 280 279 276 273 268 270 269 266 269 277 283 274 274 268
288 289 288 288 291 290 288 284 282 281 279 274 269 264 262 262 262 262 260 257 257 259 264 268 270 264 267 269 274 277 278 277 274 272 272 271 270 274 278 279 274 272 266
284 285 285 285 288 289 288 284 281 280 278 275 272 270 268 266 265 264 262 257 258 262 262 262 264 266 269 271 277 280 277 279 278 272 269 269 271 273 278 279 276 271 262
280 280 281 281 284 286 285 283 280 276 274 273 271 270 269 265 264 264 263 262 259 258 257 257 258 261 267 269 271 273 274 273 274 271 267 267 271 272 274 277 277 267 263
277 278 277 278 282 283 283 283 281 278 275 273 272 269 270 269 266 264 263 261 260 258 255 257 260 262 265 266 267 269 272 273 271 270 267 266 269 269 272 273 273 271 269
277 277 277 278 279 281 282 282 281 279 278 274 271 269 270 268 266 264 264 262 260 257 255 258 258 265 263 264 267 270 268 268 266 267 265 266 268 269 270 271 270 274 272
Height
5888 5887 5886 5886 5886 5885 5885 5885 5884 5884 5884 5883 5883 5883 5883 5883 5882 5882 5882 5882 5882 5881 5881 5881 5881 5881 5881 5881 5880 5880 5880 5880 5880 5880 5880 5880 5880 5880 5880 5880 5880 5880 5880
5887 5886 5886 5885 5885 5884 5884 5883 5883 5883 5882 5882 5882 5882 5882 5881 5881 5881 5881 5880 5880 5880 5880 5880 5880 5880 5880 5879 5879 5879 5879 5879 5879 5879 5879 5879 5879 5878 5878 5878 5879 5879 5879
5886 5885 5885 5884 5883 5883 5882 5882 5882 5882 5881 5881 5881 5880 5880 5880 5880 5879 5879 5879 5879 5879 5879 5878 5878 5878 5878 5878 5878 5878 5878 5878 5878 5878 5878 5877 5877 5877 5877 5877 5877 5878 5878
5885 5884 5883 5883 5882 5882 5881 5881 5880 5880 5880 5880 5879 5879 5879 5878 5878 5878 5878 5877 5877 5877 5877 5877 5877 5877 5877 5877 5877 5877 5877 5877 5877 5877 5876 5876 5876 5876 5876 5876 5876 5876 5876
5883 5883 5882 5881 5881 5880 5880 5879 5879 5879 5878 5878 5878 5877 5877 5877 5876 5876 5876 5876 5876 5876 5876 5876 5876 5876 5876 5876 5876 5876 5876 5876 5876 5875 5875 5875 5875 5874 5875 5875 5874 5874 5874
5882 5881 5881 5880 5880 5879 5878 5878 5877 5877 5877 5876 5876 5875 5875 5875 5875 5875 5874 5874 5874 5874 5874 5874 5874 5874 5874 5874 5874 5874 5874 5874 5874 5874 5874 5874 5873 5873 5873 5873 5873 5873 5873
5881 5880 5879 5879 5878 5877 5877 5876 5876 5875 5875 5875 5874 5874 5873 5873 5873 5873 5873 5873 5872 5872 5872 5872 5872 5872 5873 5873 5873 5872 5872 5872 5872 5872 5872 5872 5872 5872 5872 5872 5872 5871 5871
5880 5879 5878 5877 5877 5876 5875 5875 5874 5874 5873 5873 5872 5872 5872 5871 5871 5871 5871 5871 5871 5871 5871 5870 5870 5871 5871 5871 5871 5871 5871 5871 5871 5870 5870 5870 5870 5870 5870 5870 5870 5870 5869
5878 5878 5877 5876 5875 5874 5874 5873 5872 5872 5871 5871 5871 5870 5870 5870 5869 5869 5869 5869 5869 5869 5869 5869 5869 5869 5869 5869 5869 5869 5869 5869 5869 5869 5869 5868 5868 5868 5868 5868 5868 5868 5867
5877 5876 5875 5874 5873 5873 5872 5871 5871 5870 5870 5869 5869 5868 5868 5868 5867 5867 5867 5867 5867 5867 5867 5867 5867 5867 5867 5867 5867 5867 5868 5867 5867 5867 5867 5867 5866 5866 5866 5866 5866 5865 5865
5876 5875 5874 5873 5872 5871 5870 5870 5869 5868 5868 5867 5867 5866 5866 5866 5865 5865 5865 5865 5865 5865 5865 5865 5865 5865 5865 5866 5866 5866 5866 5865 5865 5865 5865 5865 5864 5864 5864 5863 5863 5863 5863
5875 5873 5872 5871 5870 5869 5868 5868 5867 5866 5866 5865 5865 5864 5864 5864 5863 5863 5863 5863 5863 5863 5863 5863 5863 5863 5864 5864 5864 5864 5864 5863 5863 5863 5863 5862 5862 5862 5861 5861 5861 5861 5861
5873 5872 5870 5869 5868 5867 5867 5866 5865 5864 5864 5863 5863 5862 5862 5862 5862 5862 5862 5862 5861 5861 5861 5861 5861 5861 5861 5861 5862 5862 5862 5861 5861 5861 5861 5860 5860 5860 5859 5859 5859 5858 5858
5872 5870 5869 5868 5866 5866 5865 5864 5863 5862 5862 5861 5861 5861 5860 5860 5860 5860 5860 5860 5860 5860 5860 5860 5860 5860 5859 5859 5860 5860 5860 5859 5859 5859 5858 5858 5858 5857 5857 5856 5856 5856 5855
5870 5869 5868 5866 5865 5864 5863 5862 5861 5861 5860 5860 5859 5859 5859 5859 5859 5858 5858 5858 5859 5859 5858 5858 5858 5858 5858 5858 5858 5858 5857 5857 5857 5856 5856 5856 5856 5855 5855 5854 5854 5853 5853
5869 5867 5866 5864 5863 5862 5861 5861 5860 5859 5858 5858 5858 5857 5857 5857 5857 5857 5857 5857 5857 5857 5857 5856 5856 5856 5856 5855 5855 5855 5855 5855 5854 5854 5854 5854 5853 5853 5852 5852 5852 5851 5851
5867 5865 5864 5863 5861 5860 5860 5859 5858 5857 5857 5856 5856 5856 5856 5856 5855 5855 5855 5855 5855 5855 5855 5855 5855 5854 5854 5853 5853 5853 5853 5852 5852 5852 5851 5851 5851 5851 5850 5850 5850 5849 5848
5865 5864 5862 5861 5860 5859 5858 5857 5856 5856 5855 5855 5854 5854 5854 5854 5854 5854 5854 5854 5854 5854 5854 5853 5853 5853 5852 5852 5851 5851 5851 5850 5850 5850 5849 5849 5849 5849 5849 5848 5848 5847 5847
5863 5862 5861 5859 5858 5857 5856 5855 5855 5854 5853 5853 5853 5853 5852 5852 5852 5852 5852 5852 5852 5852 5852 5852 5851 5851 5850 5850 5850 5849 5849 5848 5848 5848 5848 5847 5847 5847 5847 5847 5846 5846 5845
5861 5860 5859 5858 5857 5856 5855 5854 5853 5853 5852 5851 5851 5851 5851 5851 5850 5850 5850 5850 5850 5850 5850 5850 5850 5849 5849 5848 5848 5848 5847 5847 5846 5846 5846 5845 5845 5845 5845 5845 5844 5844 5844
5859 5858 5857 5856 5855 5854 5853 5852 5851 5851 5850 5849 5849 5849 5849 5849 5848 5848 5848 5848 5848 5848 5849 5848 5848 5848 5847 5847 5847 5846 5846 5845 5845 5844 5844 5844 5844 5844 5844 5843 5843 5843 5842
5857 5856 5855 5854 5853 5852 5851 5850 5849 5849 5848 5847 5847 5847 5846 5846 5846 5846 5846 5846 5846 5847 5847 5847 5847 5846 5846 5846 5846 5845 5845 5845 5844 5843 5843 5843 5843 5843 5842 5842 5841 5841 5841
5854 5853 5852 5851 5851 5850 5849 5848 5847 5846 5846 5845 5845 5844 5844 5844 5844 5844 5844 5844 5844 5845 5845 5844 5845 5845 5844 5844 5844 5844 5843 5843 5842 5842 5842 5842 5842 5841 5841 5840 5840 5839 5839
5851 5850 5850 5849 5848 5847 5847 5846 5845 5844 5843 5843 5843 5842 5842 5842 5841 5841 5841 5842 5842 5842 5842 5842 5842 5843 5842 5842 5842 5842 5842 5841 5841 5841 5840 5840 5840 5839 5839 5838 5838 5837 5837
5848 5847 5847 5846 5846 5845 5844 5843 5842 5841 5841 5840 5840 5840 5839 5839 5839 5839 5839 5839 5839 5839 5840 5840 5840 5840 5840 5840 5840 5840 5839 5839 5839 5839 5838 5838 5838 5838 5837 5836 5836 5835 5835
5845 5844 5843 5843 5842 5841 5841 5840 5839 5838 5838 5837 5837 5836 5836 5836 5836 5836 5836 5836 5836 5836 5837 5837 5837 5838 5837 5838 5838 5837 5837 5837 5837 5837 5836 5836 5836 5836 5835 5835 5834 5833 5833